[[{"header":{"parameterUnit":"m.s-1","parameterCategory":1,"la1":30.2991,"la2":30.254,"lo1":-89.0895,"lo2":-89.0444,"dy":0.0017,"dx":0.0017,"nx":28,"ny":28,"refTime":"2024-08-05T03:00:00:Z","depth":0,"parameterNumber":2,"parameterNumberName":"U-component_of_WINDS"},"data":[0,0,0,0,0,0,0,0,0,0,0,0,0,0,0,0,0,0,0,0,0,0,0,0,0,0,0,0,0,0,0,0,0,0,0,0,0,0,0,0,0,0,0,0,0,0,0,0,0,0,0,0,0,0,0,0,0,0,1.7131,1.7133,0,1.7301,1.7303,1.7305,1.7401,1.7401,1.7401,1.7402,1.7568,1.7572,1.7577,0,0,0,0,0,0,0,0,0,0,0,0,0,1.688,1.6884,1.7131,1.7133,1.7135,1.7301,1.7303,1.7306,1.7401,1.7401,1.7402,1.7402,1.7567,1.7572,1.7577,0,0,0,0,0,0,0,0,0,0,0,0,0,1.7013,1.6885,1.7131,1.7203,1.7211,1.7301,1.7303,1.7306,1.7401,1.7401,1.7402,1.7402,1.7565,1.7571,1.7578,1.7606,0,0,1.7597,1.7599,0,0,0,0,0,0,0,0,1.7005,1.7022,1.719,1.7198,1.7207,1.7331,1.7276,1.7407,1.7401,1.7328,1.7402,1.7402,1.7488,1.7501,1.7532,1.7614,1.7621,1.7597,1.7601,1.7603,1.7605,0,0,0,0,0,0,0,1.6996,1.7015,1.7198,1.7192,1.7203,1.7224,1.7243,1.7301,1.7403,1.7335,1.7342,1.7361,1.7493,1.7525,1.7536,1.7623,1.7597,1.7602,1.7606,1.7609,1.7735,1.7735,0,0,0,0,0,0,1.6976,1.7007,1.7193,1.7203,1.7106,1.7228,1.725,1.729,1.7403,1.7421,1.7361,1.7365,1.7514,1.7529,1.7542,1.7582,1.7603,1.7609,1.7613,1.7736,1.7735,1.7735,0,0,0,0,0,0,1.6971,1.6992,1.7186,1.7107,1.7134,1.7232,1.7276,1.7293,1.7326,1.7423,1.7441,1.7376,1.7515,1.7534,1.759,1.7589,1.7612,1.7618,1.7736,1.7735,1.7735,1.7661,0,0,0,0,0,0,1.6963,1.6989,1.7003,1.7107,1.7137,1.7233,1.7277,1.7296,1.7337,1.7345,1.7441,1.7458,1.7517,1.758,1.7596,1.7598,1.7623,1.7736,1.7736,1.7735,1.7664,1.7659,1.7653,0,0,0,0,0,1.6954,1.6975,1.7004,1.7025,1.7157,1.7232,1.725,1.732,1.7337,1.735,1.7412,1.7455,1.7587,1.7585,1.7603,1.7607,1.7737,1.7736,1.7735,1.7667,1.766,1.7654,0,0,0,0,0,0,1.6866,1.699,1.7023,1.7079,1.7145,1.7249,1.7268,1.731,1.7371,1.7375,1.7457,1.7478,1.7525,1.7572,1.7568,1.764,1.7666,1.7669,1.7608,1.7602,1.7596,1.7583,1.7628,0,0,0,0,0,1.6853,1.6907,1.7011,1.705,1.7081,1.7168,1.7204,1.7252,1.7323,1.735,1.7417,1.7481,1.7537,1.7572,1.7629,1.7672,1.7693,1.7683,1.7678,1.7673,1.7674,1.7698,1.7694,1.7732,1.7732,1.7732,0,0,1.6827,1.6902,1.693,1.7034,1.7091,1.7141,1.7191,1.7243,1.728,1.7358,1.7415,1.7465,1.7542,1.7591,1.7616,1.7632,1.7668,1.7672,1.7667,1.7671,1.7697,1.7693,1.769,1.7732,1.7732,1.7732,0,0,1.6806,1.6868,1.6907,1.6963,1.7049,1.7107,1.7116,1.7214,1.7251,1.731,1.7368,1.7412,1.7508,1.756,1.7599,1.7595,1.7635,1.7611,1.7582,1.7604,1.7601,1.7599,1.7596,1.7594,1.7612,1.7612,1.7612,0,1.6762,1.6844,1.6921,1.697,1.7012,1.7087,1.7124,1.7174,1.7273,1.7299,1.7316,1.7437,1.7494,1.7555,1.7554,1.7584,1.7594,1.76,1.7596,1.7595,1.7593,1.7591,1.759,1.7608,1.7609,1.7609,1.7609,0,1.6784,1.6839,1.686,1.6956,1.7001,1.7044,1.7125,1.716,1.7204,1.7259,1.7317,1.7388,1.746,1.7478,1.7521,1.7545,1.7552,1.7581,1.7609,1.7585,1.7584,1.7584,1.7603,1.7604,1.7606,1.7606,0,0,1.6712,1.6851,1.6857,1.69,1.7,1.7043,1.7087,1.716,1.7188,1.7253,1.7291,1.7369,1.7397,1.7441,1.749,1.7509,1.7499,1.7537,1.754,1.7526,1.7527,1.7503,1.7501,1.7527,1.7528,1.7528,1.752,0,1.6704,1.6792,1.6861,1.6921,1.6971,1.7042,1.708,1.7144,1.7196,1.7243,1.73,1.7354,1.7387,1.7414,1.7437,1.7496,1.7501,1.7498,1.756,1.7562,1.7538,1.7501,1.7477,1.7466,1.752,1.7521,1.7521,0,1.6707,1.6771,1.6836,1.6929,1.6953,1.6987,1.7058,1.7104,1.7176,1.7212,1.7261,1.7312,1.7359,1.7383,1.7447,1.7443,1.7473,1.7506,1.7507,1.7514,1.7539,1.7506,1.7465,1.7462,1.7521,1.7521,1.7521,0,1.6645,1.6748,1.68,1.6836,1.6946,1.6968,1.7014,1.7088,1.7126,1.7187,1.7212,1.7277,1.7312,1.7359,1.7425,1.7437,1.7482,1.7512,1.7511,1.7509,1.7516,1.7514,1.7477,1.7537,1.7537,1.7537,1.7537,0,1.6628,1.6664,1.6774,1.6806,1.6848,1.6926,1.6965,1.7017,1.7081,1.7122,1.7186,1.7222,1.7308,1.7353,1.7405,1.7449,1.7465,1.7493,1.7506,1.7487,1.7483,1.7506,1.7508,1.7537,1.7537,1.7537,1.7537,0,1.6567,1.6642,1.6703,1.6803,1.6829,1.6855,1.6939,1.697,1.7026,1.7076,1.7092,1.7178,1.7235,1.7306,1.7385,1.742,1.7457,1.7478,1.7433,1.7441,1.7435,1.7434,1.7411,1.741,1.7471,1.7471,1.747,0,1.655,1.658,1.6684,1.6717,1.6762,1.6814,1.6854,1.6932,1.697,1.7054,1.7074,1.7137,1.7191,1.7277,1.7345,1.7405,1.7426,1.7414,1.7436,1.7415,1.7424,1.7421,1.7423,1.7408,1.7407,1.7406,1.7405,0,1.6512,1.6548,1.6604,1.6673,1.672,1.6777,1.6837,1.686,1.6949,1.6988,1.7049,1.709,1.7171,1.7231,1.73,1.7344,1.7388,1.7398,1.7401,1.738,1.7352,1.7365,1.7417,1.7398,1.7399,1.7399,1.74,1.74,1.6472,1.6501,1.6578,1.6638,1.6692,1.6746,1.678,1.684,1.6893,1.6966,1.7008,1.7066,1.7135,1.7232,1.7275,1.7319,1.7336,1.734,1.7341,1.734,1.7333,1.7347,1.7332,1.7333,1.7333,1.7333,1.7333,0,1.6435,1.6488,1.6543,1.6626,1.6672,1.6713,1.6781,1.6816,1.6867,1.6929,1.6981,1.7048,1.7106,1.7178,1.724,1.7261,1.7283,1.7275,1.7273,1.7282,1.7316,1.7307,1.7256,1.7256,1.7256,1.7256,1.7256,1.7256,1.6422,1.6473,1.6517,1.6594,1.6646,1.6705,1.674,1.6789,1.6839,1.6912,1.6962,1.7009,1.7074,1.7141,1.7195,1.7214,1.7233,1.7218,1.7243,1.7273,1.728,1.7286,1.7278,1.7222,1.7222,1.7206,1.7205,1.7205]},{"header":{"parameterUnit":"m.s-1","parameterCategory":1,"la1":30.2991,"la2":30.254,"lo1":-89.0895,"lo2":-89.0444,"dy":0.0017,"dx":0.0017,"nx":28,"ny":28,"refTime":"2024-08-05T03:00:00:Z","depth":0,"parameterNumber":3,"parameterNumberName":"V-component_of_WINDS"},"data":[0,0,0,0,0,0,0,0,0,0,0,0,0,0,0,0,0,0,0,0,0,0,0,0,0,0,0,0,0,0,0,0,0,0,0,0,0,0,0,0,0,0,0,0,0,0,0,0,0,0,0,0,0,0,0,0,0,0,-0.2122,-0.2122,0,-0.2179,-0.2179,-0.218,-0.2226,-0.2226,-0.2227,-0.2227,-0.2285,-0.2286,-0.2288,0,0,0,0,0,0,0,0,0,0,0,0,0,-0.2052,-0.2053,-0.2122,-0.2122,-0.2123,-0.2179,-0.2179,-0.218,-0.2226,-0.2226,-0.2227,-0.2228,-0.2285,-0.2286,-0.2288,0,0,0,0,0,0,0,0,0,0,0,0,0,-0.2093,-0.2054,-0.2122,-0.2153,-0.2156,-0.2178,-0.2179,-0.218,-0.2226,-0.2227,-0.2227,-0.2228,-0.2285,-0.2286,-0.2288,-0.2284,0,0,-0.2293,-0.2294,0,0,0,0,0,0,0,0,-0.2091,-0.2096,-0.2147,-0.2151,-0.2154,-0.2196,-0.2176,-0.2215,-0.2226,-0.2199,-0.2227,-0.2228,-0.2255,-0.2259,-0.2268,-0.2287,-0.2289,-0.2293,-0.2294,-0.2295,-0.2295,0,0,0,0,0,0,0,-0.2088,-0.2093,-0.2144,-0.2148,-0.2152,-0.2164,-0.217,-0.2184,-0.2223,-0.2202,-0.2205,-0.2211,-0.2257,-0.2267,-0.227,-0.229,-0.2293,-0.2295,-0.2296,-0.2296,-0.2308,-0.2308,0,0,0,0,0,0,-0.208,-0.2091,-0.2143,-0.2146,-0.2124,-0.2164,-0.2172,-0.2182,-0.2223,-0.2229,-0.2211,-0.2213,-0.2263,-0.2268,-0.2272,-0.2271,-0.2295,-0.2296,-0.2297,-0.2309,-0.2308,-0.2307,0,0,0,0,0,0,-0.2079,-0.2084,-0.214,-0.2119,-0.2127,-0.2165,-0.2176,-0.2183,-0.2192,-0.2229,-0.2236,-0.2213,-0.2264,-0.227,-0.2281,-0.2274,-0.2297,-0.2299,-0.231,-0.2309,-0.2308,-0.2268,0,0,0,0,0,0,-0.2076,-0.2084,-0.2083,-0.2119,-0.2128,-0.2148,-0.2175,-0.2183,-0.2195,-0.2199,-0.2234,-0.224,-0.2265,-0.2278,-0.2282,-0.2276,-0.23,-0.2311,-0.2309,-0.2308,-0.227,-0.2265,-0.2262,0,0,0,0,0,-0.2074,-0.2069,-0.2082,-0.2088,-0.2128,-0.2147,-0.2153,-0.2182,-0.2194,-0.2194,-0.2217,-0.2239,-0.2273,-0.2279,-0.2284,-0.2278,-0.2311,-0.231,-0.2308,-0.2272,-0.2266,-0.2262,0,0,0,0,0,0,-0.2031,-0.2074,-0.209,-0.2097,-0.2118,-0.2155,-0.2155,-0.2175,-0.2193,-0.2196,-0.2231,-0.2239,-0.2246,-0.2263,-0.2268,-0.2277,-0.2295,-0.2294,-0.2265,-0.2261,-0.2257,-0.2253,-0.2301,0,0,0,0,0,-0.2022,-0.2035,-0.2072,-0.2074,-0.2084,-0.2117,-0.2127,-0.2148,-0.2171,-0.218,-0.2205,-0.2227,-0.2243,-0.2252,-0.2269,-0.2272,-0.228,-0.227,-0.2266,-0.2263,-0.2262,-0.2266,-0.2262,-0.2302,-0.2302,-0.2302,0,0,-0.2005,-0.203,-0.2036,-0.2066,-0.2085,-0.2097,-0.2125,-0.2136,-0.2146,-0.2182,-0.2194,-0.2213,-0.2239,-0.2246,-0.2251,-0.2261,-0.2253,-0.2261,-0.2258,-0.2259,-0.2264,-0.226,-0.2256,-0.2301,-0.2301,-0.2302,0,0,-0.1979,-0.1999,-0.2003,-0.2022,-0.205,-0.2072,-0.2073,-0.2107,-0.2121,-0.2133,-0.2161,-0.2172,-0.2198,-0.2217,-0.2229,-0.2209,-0.223,-0.2213,-0.2192,-0.2195,-0.2192,-0.2189,-0.2183,-0.218,-0.2212,-0.2212,-0.2212,0,-0.1954,-0.1973,-0.2003,-0.2013,-0.2026,-0.2059,-0.2064,-0.208,-0.2112,-0.212,-0.2131,-0.2165,-0.2185,-0.2197,-0.2192,-0.2201,-0.2203,-0.221,-0.219,-0.2188,-0.2186,-0.218,-0.2177,-0.221,-0.2211,-0.2211,-0.2211,0,-0.194,-0.1953,-0.1953,-0.1983,-0.1996,-0.2003,-0.2035,-0.2043,-0.2062,-0.2083,-0.2096,-0.2121,-0.2143,-0.2147,-0.2166,-0.2162,-0.2167,-0.2183,-0.2203,-0.2179,-0.2175,-0.2172,-0.2207,-0.2208,-0.2209,-0.2209,0,0,-0.1891,-0.1937,-0.1937,-0.1951,-0.1984,-0.1994,-0.2002,-0.2024,-0.2032,-0.2052,-0.2061,-0.2082,-0.2097,-0.2111,-0.2132,-0.2134,-0.2117,-0.215,-0.2151,-0.2144,-0.2115,-0.2103,-0.21,-0.2131,-0.213,-0.213,-0.2113,0,-0.1871,-0.1888,-0.1916,-0.1924,-0.1936,-0.1967,-0.1975,-0.1996,-0.2015,-0.2028,-0.205,-0.2065,-0.2083,-0.2092,-0.2095,-0.2118,-0.2112,-0.212,-0.2139,-0.214,-0.2133,-0.2098,-0.2086,-0.2069,-0.2111,-0.2111,-0.2111,0,-0.1851,-0.187,-0.1879,-0.1911,-0.1917,-0.1924,-0.1946,-0.1958,-0.1982,-0.1996,-0.2011,-0.2034,-0.2044,-0.2061,-0.2076,-0.2081,-0.209,-0.2102,-0.2102,-0.2106,-0.2125,-0.2102,-0.2064,-0.2061,-0.2108,-0.2108,-0.2108,0,-0.1815,-0.1842,-0.1852,-0.1863,-0.19,-0.1904,-0.1919,-0.1944,-0.1955,-0.1975,-0.1982,-0.2002,-0.2013,-0.2028,-0.2055,-0.2065,-0.2068,-0.2086,-0.208,-0.2079,-0.2081,-0.208,-0.2044,-0.2084,-0.2084,-0.2084,-0.2084,0,-0.1791,-0.1795,-0.1836,-0.1842,-0.1848,-0.1879,-0.1884,-0.1903,-0.1924,-0.1935,-0.1962,-0.1971,-0.2006,-0.2019,-0.204,-0.205,-0.2054,-0.2066,-0.2072,-0.2064,-0.2063,-0.2072,-0.2074,-0.2084,-0.2084,-0.2084,-0.2084,0,-0.1752,-0.1779,-0.1792,-0.1826,-0.1834,-0.1837,-0.1867,-0.1873,-0.1894,-0.1906,-0.1911,-0.1943,-0.196,-0.1988,-0.2013,-0.2027,-0.2033,-0.2042,-0.2025,-0.2029,-0.2021,-0.2022,-0.1991,-0.1989,-0.2028,-0.2028,-0.2028,0,-0.1736,-0.174,-0.1774,-0.1783,-0.1798,-0.1811,-0.1823,-0.1853,-0.1863,-0.1891,-0.1895,-0.1913,-0.193,-0.1955,-0.1981,-0.2,-0.201,-0.1998,-0.2013,-0.2006,-0.2011,-0.2011,-0.2012,-0.1995,-0.1994,-0.1994,-0.1993,0,-0.1704,-0.1717,-0.1732,-0.1752,-0.1765,-0.1783,-0.1801,-0.1807,-0.1841,-0.1852,-0.1869,-0.1882,-0.1907,-0.1925,-0.1948,-0.1964,-0.1984,-0.1988,-0.1988,-0.1981,-0.1971,-0.1977,-0.2017,-0.1989,-0.1989,-0.199,-0.199,-0.199,-0.1677,-0.1682,-0.1707,-0.1723,-0.174,-0.1757,-0.1765,-0.1786,-0.1801,-0.1824,-0.184,-0.1857,-0.188,-0.1913,-0.1928,-0.1941,-0.195,-0.195,-0.195,-0.1949,-0.1947,-0.1968,-0.1945,-0.1945,-0.1945,-0.1945,-0.1946,0,-0.1647,-0.1664,-0.1679,-0.1704,-0.1717,-0.1734,-0.1756,-0.1765,-0.1779,-0.1799,-0.1815,-0.1835,-0.1852,-0.1879,-0.1899,-0.1904,-0.1914,-0.1909,-0.1909,-0.1913,-0.1937,-0.1936,-0.19,-0.19,-0.19,-0.19,-0.19,-0.19,-0.1633,-0.1644,-0.1659,-0.1678,-0.1695,-0.1711,-0.1722,-0.1738,-0.1754,-0.1775,-0.179,-0.1807,-0.183,-0.1851,-0.1868,-0.1876,-0.1882,-0.1874,-0.1884,-0.1907,-0.1911,-0.1915,-0.1914,-0.1875,-0.1875,-0.1859,-0.1859,-0.1859]}]]